GW5012 Weather Reports


Display with metric or nautical units.
time (UTC)temp
F
wind
direction
speed
MPH
gust
MPH
rain 1hr
in
rain 24hr
in
rain mn
in
humidity
%
barometer
mb
20260905231600 74 360 6.0 11.0 0.00 0.01 0.00 37 1013.3
20260905230108 74 19 4.0 12.0 0.00 0.01 0.00 36 1013.5
20260905224605 74 5 2.0 10.0 0.00 0.01 0.00 37 1013.7
20260905223057 73 65 4.0 10.0 0.00 0.01 0.00 36 1013.7
20260905221557 74 14 3.0 12.0 0.00 0.01 0.00 34 1013.8
20260905220111 74 54 6.0 12.0 0.00 0.01 0.00 36 1014.0
20260905214605 74 19 6.0 10.0 0.00 0.01 0.00 37 1014.0
20260905213104 74 10 7.0 14.0 0.00 0.01 0.00 38 1014.1
20260905211604 73 308 3.0 11.0 0.00 0.01 0.00 36 1014.2
20260905210104 72 360 5.0 10.0 0.00 0.01 0.00 38 1014.3
20260905204558 72 41 4.0 10.0 0.00 0.01 0.00 40 1014.4
20260905203102 71 20 3.0 10.0 0.00 0.01 0.00 41 1014.4
20260905201559 70 109 5.0 9.0 0.00 0.01 0.00 43 1014.6
20260905200106 70 360 4.0 9.0 0.00 0.01 0.00 45 1014.8
20260905194558 68 58 1.0 8.0 0.00 0.01 0.00 52 1015.1
20260905193102 68 65 2.0 8.0 0.00 0.01 0.00 54 1015.3
20260905191600 66 75 2.0 7.0 0.00 0.01 0.00 55 1015.7
20260905190108 65 53 3.0 8.0 0.00 0.01 0.00 55 1015.9
20260905184608 64 325 0.0 8.0 0.00 0.01 0.00 59 1016.0
20260905183124 64 26 2.0 6.0 0.00 0.01 0.00 60 1016.1
20260905181604 63 350 2.0 8.0 0.00 0.01 0.00 62 1016.4
20260905180107 62 0 1.0 4.0 0.00 0.01 0.00 63 1016.4
20260905174605 61 248 1.0 5.0 0.00 0.01 0.00 67 1016.6
20260905173103 60 20 0.0 5.0 0.00 0.01 0.00 69 1016.6
20260905171605 59 0 1.0 4.0 0.00 0.01 0.00 71 1016.7
20260905170100 57 136 1.0 5.0 0.00 0.01 0.00 74 1017.0
20260905164606 57 5 1.0 3.0 0.00 0.01 0.00 76 1017.0
20260905163106 55 48 0.0 3.0 0.00 0.01 0.00 80 1017.2
20260905161601 54 0 0.0 3.0 0.00 0.01 0.00 83 1017.3
20260905160123 53 148 1.0 4.0 0.00 0.01 0.00 86 1017.3
20260905154604 52 112 0.0 3.0 0.00 0.01 0.00 87 1017.4
20260905153112 51 44 0.0 2.0 0.00 0.01 0.00 88 1017.3
20260905151559 51 0 0.0 1.0 0.00 0.01 0.00 88 1017.4
20260905144606 49 0 0.0 1.0 0.00 0.01 0.00 92 1017.5
20260905143059 48 0 0.0 0.0 0.00 0.01 0.00 93 1017.4
20260905141604 47 0 0.0 0.0 0.00 0.01 0.00 94 1017.2
20260905140109 47 355 1.0 2.0 0.00 0.01 0.00 94 1017.3
20260905134558 47 0 0.0 0.0 0.00 0.02 0.00 93 1017.0
20260905133108 47 0 0.0 0.0 0.00 0.02 0.00 93 1017.1
20260905131611 47 0 0.0 0.0 0.00 0.02 0.00 92 1016.9
20260905130115 48 0 0.0 0.0 0.00 0.02 0.00 93 1016.8
20260905124600 48 0 0.0 0.0 0.00 0.02 0.00 93 1016.8
20260905123107 48 0 0.0 0.0 0.00 0.02 0.00 92 1016.8
20260905121601 49 0 0.0 0.0 0.00 0.02 0.00 92 1017.0
20260905120112 49 0 0.0 0.0 0.00 0.02 0.00 92 1017.0
20260905114555 49 0 0.0 0.0 0.00 0.02 0.00 92 1017.1
20260905113058 49 0 0.0 2.0 0.00 0.02 0.00 92 1017.0
20260905111611 49 0 0.0 2.0 0.00 0.02 0.00 92 1017.0
20260905110101 49 0 0.0 0.0 0.00 0.02 0.00 93 1017.0
20260905104600 49 0 0.0 2.0 0.00 0.02 0.00 92 1017.0
20260905103102 49 0 0.0 0.0 0.00 0.02 0.00 92 1017.2
20260905101602 49 0 0.0 0.0 0.00 0.02 0.00 91 1017.0
20260905094603 50 0 0.0 0.0 0.00 0.02 0.00 90 1016.8
20260905093058 50 0 0.0 2.0 0.00 0.02 0.00 90 1016.8
20260905091609 50 0 0.0 1.0 0.00 0.02 0.00 91 1017.0
20260905090100 51 0 0.0 2.0 0.00 0.02 0.00 89 1016.9
20260905084617 51 0 0.0 1.0 0.00 0.02 0.00 89 1016.9
20260905083055 51 0 1.0 3.0 0.00 0.02 0.00 88 1016.8
20260905081604 52 0 0.0 1.0 0.00 0.02 0.00 87 1016.7
20260905080105 52 0 0.0 3.0 0.00 0.02 0.00 85 1016.7
20260905074605 53 0 0.0 0.0 0.00 0.02 0.00 84 1016.7
20260905073106 53 0 0.0 0.0 0.00 0.02 0.00 84 1016.7
20260905071554 53 0 0.0 0.0 0.00 0.02 0.00 83 1016.6
20260905070103 54 166 1.0 4.0 0.00 0.02 0.00 83 1016.5
20260905064601 54 139 1.0 3.0 0.00 0.02 0.02 82 1016.3
20260905063100 54 0 0.0 1.0 0.00 0.02 0.02 83 1016.5
20260905061601 54 103 0.0 3.0 0.00 0.02 0.02 82 1016.5
20260905060101 54 0 0.0 3.0 0.00 0.02 0.02 83 1016.2
20260905054600 54 0 1.0 2.0 0.00 0.02 0.02 82 1016.3
20260905053141 54 0 0.0 3.0 0.00 0.02 0.02 82 1016.4
20260905051559 55 0 0.0 0.0 0.00 0.02 0.02 80 1016.3
20260905044605 56 0 0.0 2.0 0.00 0.02 0.02 77 1016.3
20260905043106 56 0 0.0 3.0 0.00 0.02 0.02 76 1016.1
20260905041608 57 179 1.0 6.0 0.00 0.02 0.02 74 1016.0
20260905040104 58 159 1.0 3.0 0.00 0.02 0.02 71 1015.9
20260905034556 59 0 0.0 0.0 0.00 0.02 0.02 68 1015.8
20260905033103 60 0 0.0 3.0 0.00 0.02 0.02 64 1015.5
20260905031557 60 0 1.0 3.0 0.00 0.02 0.02 65 1015.4
20260905024621 61 339 1.0 3.0 0.00 0.02 0.02 63 1015.1
20260905023110 61 5 2.0 7.0 0.00 0.02 0.02 62 1015.0
20260905021600 62 5 5.0 9.0 0.00 0.02 0.02 60 1014.9
20260905020110 62 360 6.0 11.0 0.00 0.02 0.02 59 1014.9
20260905014615 62 46 2.0 6.0 0.00 0.02 0.02 60 1014.7
20260905013104 62 57 2.0 9.0 0.00 0.02 0.02 59 1014.6
20260905011619 62 49 4.0 11.0 0.00 0.02 0.02 61 1014.7
20260905010101 62 61 8.0 12.0 0.00 0.02 0.02 60 1014.5
20260905004600 62 11 5.0 13.0 0.01 0.02 0.02 62 1014.4
20260905003103 62 14 7.0 12.0 0.01 0.02 0.02 62 1014.3
20260905001602 62 12 8.0 16.0 0.01 0.02 0.02 63 1014.3
20260905000105 61 12 7.0 15.0 0.01 0.02 0.02 66 1014.1
20260904234601 63 342 4.0 9.0 0.00 0.01 0.01 64 1014.0
20260904233057 64 11 5.0 13.0 0.00 0.01 0.01 56 1013.9